Home > Time Zones > World Clock > Weather > India > Patna > Past weeks

Flag for India Weather past 2 weeks in Patna, Bihar, India

Now
93 °F

Scattered clouds.


Feels Like: 99 °F
Forecast: 78 / 94 °F
Wind: 9 mph from East

Location: Patna Airport

Current Time: Apr 27, 2015 at 4:01:37 PM

Latest Report: Apr 27, 2015 at 3:20 PM


Visibility: 4 mi

Pressure: 29.71 "Hg

Humidity: 47%

Dew point: 70 °F

Location of PatnaLocation

Historic Weather in Patna — Graph

°F

Patna temperature yesterday

Maximum temperature yesterday: 90 °F (at 2:20 PM)
Minimum temperature yesterday: 70 °F (at 5:20 AM)
Average temperature yesterday: 85 °F

Past Weeks' High & Low Weather Summary

 TemperatureHumidityPressure
High106 °F (Apr 22, 3:20 PM)94% (Apr 26, 5:20 AM)30.01 "Hg (Apr 26, 5:20 AM)
Low70 °F (Apr 16, 5:20 AM)13% (Apr 22, 3:20 PM)29.50 "Hg (Apr 18, 3:20 PM)
Average86 °F57%29.78 "Hg
* Reported Apr 12 3:20 PM — Apr 27 2:20 PM, Patna, Weather by CustomWeather, © 2015

Note: Actual official high and low records may vary slightly from our data, if they occured in-between our weather recording intervals... More about our weather records

Advertising

Patna weather history for previous 24 hours

 ConditionsComfort  
Time TempWeatherWind HumidityBarometerVisibility
2:20 PM
Mon, Apr 27
93 °FBroken clouds.9 mph47%29.77 "Hg4 mi
1:20 PM91 °FBroken clouds.14 mph49%29.80 "Hg4 mi
12:20 PM90 °FScattered clouds.12 mph52%29.86 "Hg4 mi
11:20 AM90 °FScattered clouds.7 mph59%29.86 "Hg3 mi
10:20 AM88 °FScattered clouds.12 mph59%29.89 "Hg2 mi
9:20 AM82 °FHaze.16 mph62%29.89 "Hg2 mi
8:20 AM81 °FHaze.12 mph66%29.89 "Hg2 mi
7:20 AM77 °FBroken clouds.9 mph74%29.89 "Hg2 mi
6:20 AM75 °FBroken clouds.9 mph78%29.86 "Hg2 mi
5:20 AM73 °FHaze.9 mph78%29.83 "Hg2 mi
9:20 PM
Sun, Apr 26
82 °FHaze.9 mph55%29.83 "Hg2 mi
8:20 PM84 °FHaze.7 mph55%29.80 "Hg2 mi
7:20 PM86 °FHaze.7 mph52%29.77 "Hg2 mi
6:20 PM88 °FHaze.7 mph49%29.77 "Hg2 mi
5:20 PM90 °FHaze.10 mph46%29.74 "Hg3 mi
4:20 PM90 °FPassing clouds.7 mph46%29.74 "Hg3 mi
Weather by CustomWeather, © 2015

See weather overviewHow to use our weather pages